Regional Weather Roundup
Issued by NWS Sterling, VA

Home | Current Version | Previous Version | Text Only | Print | Product List | Glossary On
Versions: 1 2 3 4 5 6 7 8 9 10 11 12 13 14 15 16 17 18 19 20 21 22 23 24 25 26 27 28 29 30 31 32 33 34 35 36 37 38 39 40 41 42 43 44 45 46 47 48 49 50
000
ASUS41 KLWX 070210
RWRLWX

REGIONAL WEATHER ROUNDUP
NATIONAL WEATHER SERVICE BALTIMORE MD/WASHINGTON DC
1000 PM EDT WED MAY 06 2015

Note: "FAIR" indicates few or no clouds below 12,000 feet
with no significant weather and/or obstructions to visibility.
 TC=TEMPERATURE CELSIUS

 * =Non NWS site. Station does not report precipitation (e.g. rain,
    snow, etc.), thunder, or fog.

DCZ001-MDZ009-015-VAZ040>042-051-053>054-070300-
WASHINGTON METRO

CITY           SKY/WX    TMP DP  RH WIND       PRES   REMARKS
WASHINGTON NAT MOCLDY    72  58  61 E6        30.20R
DULLES         MOCLDY    69  65  86 N8        30.21R
ANDREWS AFB    MOCLDY    67  57  71 E8        30.19R
FT BELVOIR     MOCLDY    70  59  68 VRB2      30.19R
QUANTICO       MOCLDY    70  63  78 NE3       30.19R
LEESBURG*      CLOUDY    70  68  94 NW7       30.23R
MANASSAS*      PTCLDY    66  64  94 N7        30.20R
GAITHERSBURG*  CLOUDY    66  57  72 CALM      30.25R

$$

MDZ006>007-011-014-070300-
BALTIMORE METRO

CITY           SKY/WX    TMP DP  RH WIND       PRES   REMARKS
BWI AIRPORT    CLOUDY    67  53  61 E9        30.21R
MD SCIENCE CTR   N/A     68  55  63 MISG      30.22R
MARTIN STATE   PTCLDY    68  57  68 E5        30.23R
ANNAPOLIS      PTCLDY    66  54  65 E6        30.21R
FORT MEADE*    MOCLDY    64  54  68 E3        30.23R

$$

MDZ012-015-019>023-070300-
MARYLAND EASTERN SHORE

CITY           SKY/WX    TMP DP  RH WIND       PRES   REMARKS
OCEAN CITY     PTCLDY    54  51  90 NE7       30.22R
SALISBURY      CLEAR     56  51  84 E6        30.22R
BAY BRIDGE AP*   N/A    N/A N/A N/A E8        30.22R
CAMBRIDGE*     CLEAR     61  52  72 E3        30.21R
EASTON*        CLEAR     63  53  70 SE5       30.25R

$$

MDZ017>025-070300-
SOUTHERN MARYLAND

CITY           SKY/WX    TMP DP  RH WIND       PRES   REMARKS
PATUXENT RIVER MOCLDY    65  60  84 SE9       30.18R
ST INIGOES     PTCLDY    66  58  75 E6        30.18R
LEONARDTOWN*   PTCLDY    64  57  77 NE5       30.20R

$$

MDZ003>005-070300-
NORTH CENTRAL MARYLAND

CITY           SKY/WX    TMP DP  RH WIND       PRES   REMARKS
FREDERICK*     LGT RAIN  68  61  77 NE8       30.23S
HAGERSTOWN APT MOCLDY    63  61  93 W5        30.22R FOG
WESTMINSTER*   CLOUDY    72  57  60 S6        30.22R

$$

MDZ501>502-070300-
WESTERN MARYLAND

CITY           SKY/WX    TMP DP  RH WIND       PRES   REMARKS
OAKLAND*       PTCLDY    61  61 100 SE10      30.26R
CUMBERLAND*    PTCLDY    63  63 100 CALM      30.25R

$$

VAZ025>031-070300-
SHENANDOAH VALLEY

CITY           SKY/WX    TMP DP  RH WIND       PRES   REMARKS
WINCHESTER*    TSTM      64  59  82 E5        30.23S
FRONT ROYAL*   CLOUDY    63  61  94 NE10      30.24R
LURAY*         LGT RAIN  64  64 100 NE9       30.22R
NEW MARKET*    CLOUDY    64  63  94 NE8       30.19R
STAUNTON*      MOCLDY    65  60  84 CALM      30.20S
WAYNESBORO*    MOCLDY    67  59  75 S5        30.20R

$$

WVZ021-048>050-054>055-070300-
EASTERN WEST VIRGINIA PANHANDLE

CITY           SKY/WX    TMP DP  RH WIND       PRES   REMARKS
MARTINSBURG    HVY RAIN  65  62  90 S9        30.20F FOG
PETERSBURG*    LGT RAIN  69  58  69 NW5       30.21R

$$

VAZ036>039-050-070300-
CENTRAL FOOTHILLS

CITY           SKY/WX    TMP DP  RH WIND       PRES   REMARKS
CHARLOTTESVILL TSTM      64  62  93 N14       30.17R
CULPEPER*      CLOUDY    62  61  96 N8        30.21R
ORANGE*        CLOUDY    63  63 100 CALM      30.19R FOG
GORDONSVILLE*  CLOUDY    64  63  97 CALM      30.17R FOG
WARRENTON*     FAIR      64  64  97 N7        30.20R

$$

VAZ055>057-070300-
NORTH AND CENTRAL PIEDMONT

CITY           SKY/WX    TMP DP  RH WIND       PRES   REMARKS
FREDERICKSBRG* MOCLDY    72  60  65 CALM      30.16R
STAFFORD*      LGT RAIN  68  32  26 N5        30.22R

$$

NCZ024-NYZ072-PAZ021-071-VAZ022-071-070300-
OTHER REGIONAL OBSERVATIONS

CITY           SKY/WX    TMP DP  RH WIND       PRES   REMARKS
NEW YORK CITY  CLEAR     61  41  47 CALM      30.27R
PHILADELPHIA   MOCLDY    63  50  62 E7        30.24R
PITTSBURGH     MOCLDY    73  59  61 N6        30.16R
ROANOKE        CLOUDY    64  60  87 CALM      30.20R
RICHMOND       CLOUDY    72  58  61 S5        30.16R
RALEIGH        CLOUDY    66  53  63 CALM      30.16R

$$

ANZ530>537-070300-
MARINE OBSERVATIONS

STATION/POSITION TIME  TEMP    WIND        PRES
                       AIR SEA DIR/SP/G
                 (UTC) (F)     (DEG/KT/KT) (MB)
THOMAS PT LIGHT  0200   65 60  110/ 15/ 17 1023.3R
BALT KEY BRIDGE  0100   67     110/ 11/ 12 1022.0R
COVE POINT       0100   68     170/  8/  8 1022.1R
LEWISETTA        0100   69 68              1021.3R
SOLOMONS ISLAND  0112      62                N/A
PINEY POINT      0100          150/ 11/ 12   N/A

$$




USA.gov is the U.S. government's official web portal to all federal, state and local government web resources and services.